VE4UB Weather Reports


Display with metric or nautical units.
time (UTC)temp
F
wind
direction
speed
MPH
gust
MPH
rain 1hr
in
rain 24hr
in
rain mn
in
humidity
%
barometer
mb
20210418171529 28 13 7.0 18.0 0.00 0.00 0.00 99 1019.9
20210418171018 28 23 10.0 16.0 0.00 0.00 0.00 99 1019.8
20210418170519 28 346 13.0 25.0 0.00 0.00 0.00 99 1019.8
20210418170021 28 30 12.0 25.0 0.00 0.00 0.00 99 1019.7
20210418165729 28 24 17.0 25.0 0.00 0.00 0.00 99 1019.7
20210418165031 28 7 25.0 25.0 0.00 0.00 0.00 99 1019.7
20210418164524 28 3 13.0 20.0 0.00 0.00 0.00 99 1019.6
20210418164024 28 17 15.0 25.0 0.00 0.00 0.00 99 1019.6
20210418163525 28 357 18.0 25.0 0.00 0.00 0.00 99 1019.5
20210418163140 28 359 17.0 21.0 0.00 0.00 0.00 99 1019.5
20210418162926 28 359 16.0 23.0 0.00 0.00 0.00 99 1019.3
20210418162456 28 1 14.0 23.0 0.00 0.00 0.00 99 1019.3
20210418161518 28 4 13.0 14.0 0.00 0.00 0.00 99 1019.2
20210418161023 28 15 10.0 18.0 0.00 0.00 0.00 99 1019.1
20210418160514 28 1 18.0 28.0 0.00 0.00 0.00 99 1019.0
20210418160032 28 357 28.0 28.0 0.00 0.00 0.00 99 1019.1
20210418155801 28 15 13.0 28.0 0.00 0.00 0.00 99 1019.0
20210418155127 28 10 12.0 16.0 0.00 0.00 0.00 99 1018.9
20210418154515 28 10 12.0 16.0 0.00 0.00 0.00 99 1018.8
20210418154024 28 354 16.0 24.0 0.00 0.00 0.00 99 1018.8
20210418153510 28 21 24.0 24.0 0.00 0.00 0.00 99 1018.7
20210418153020 28 4 14.0 20.0 0.00 0.00 0.00 99 1018.6
20210418152707 28 340 17.0 20.0 0.00 0.00 0.00 99 1018.7
20210418152126 28 39 8.0 11.0 0.00 0.00 0.00 99 1018.6
20210418151511 28 32 9.0 25.0 0.00 0.00 0.00 99 1018.6
20210418151021 28 25 20.0 25.0 0.00 0.00 0.00 99 1018.6
20210418150511 28 13 11.0 21.0 0.00 0.00 0.00 99 1018.5
20210418150021 28 51 13.0 21.0 0.00 0.00 0.00 99 1018.4
20210418145739 29 352 11.0 17.0 0.00 0.00 0.00 99 1018.3
20210418145111 29 23 13.0 17.0 0.00 0.00 0.00 99 1018.2
20210418144509 29 356 14.0 20.0 0.00 0.00 0.00 99 1018.1
20210418144028 29 357 11.0 20.0 0.00 0.00 0.00 99 1018.1
20210418143508 29 25 12.0 18.0 0.00 0.00 0.00 99 1018.0
20210418143026 29 30 11.0 21.0 0.00 0.00 0.00 99 1018.0
20210418142815 29 13 13.0 21.0 0.00 0.00 0.00 99 1017.8
20210418142238 29 10 10.0 18.0 0.00 0.00 0.00 99 1017.8
20210418141519 29 18 12.0 18.0 0.00 0.00 0.00 99 1017.8
20210418140951 30 34 12.0 15.0 0.00 0.00 0.00 99 1017.7
20210418140449 30 15 9.0 22.0 0.00 0.00 0.00 99 1017.6
20210418140041 30 21 14.0 22.0 0.00 0.00 0.00 99 1017.6
20210418135849 30 354 12.0 20.0 0.00 0.00 0.00 99 1017.5
20210418135229 30 356 14.0 18.0 0.00 0.00 0.00 99 1017.5
20210418134519 30 17 16.0 19.0 0.00 0.00 0.00 99 1017.5
20210418134025 30 10 17.0 19.0 0.00 0.00 0.00 99 1017.5
20210418133515 30 13 10.0 15.0 0.00 0.00 0.00 99 1017.4
20210418133023 30 10 12.0 15.0 0.00 0.00 0.00 99 1017.3
20210418132724 31 1 9.0 15.0 0.00 0.00 0.00 99 1017.2
20210418132048 31 32 8.0 15.0 0.00 0.00 0.00 99 1017.2
20210418131515 31 18 7.0 18.0 0.00 0.00 0.00 99 1017.0
20210418131026 31 14 10.0 19.0 0.00 0.00 0.00 99 1016.9
20210418130515 31 42 12.0 19.0 0.00 0.00 0.00 99 1016.8
20210418130223 31 25 11.0 17.0 0.00 0.00 0.00 99 1016.8
20210418130054 31 25 12.0 17.0 0.00 0.00 0.00 99 1016.7
20210418125714 31 27 8.0 12.0 0.00 0.00 0.00 99 1016.5
20210418124538 32 10 9.0 16.0 0.00 0.00 0.00 99 1016.4
20210418124104 32 42 10.0 16.0 0.00 0.00 0.00 99 1016.4
20210418123900 32 8 11.0 11.0 0.00 0.00 0.00 99 1016.3
20210418123446 32 1 11.0 13.0 0.00 0.00 0.00 99 1016.2
20210418123112 33 10 12.0 13.0 0.00 0.00 0.00 99 1016.2
20210418122356 33 55 7.0 13.0 0.00 0.00 0.00 99 1016.0
20210418121519 33 41 8.0 13.0 0.00 0.00 0.00 99 1015.9
20210418121058 33 353 12.0 12.0 0.00 0.00 0.00 99 1015.8
20210418120540 33 69 6.0 10.0 0.00 0.00 0.00 99 1015.7
20210418120201 33 37 7.0 11.0 0.00 0.00 0.00 99 1015.7
20210418115932 33 38 11.0 15.0 0.00 0.00 0.00 99 1015.6
20210418115307 33 359 9.0 15.0 0.00 0.00 0.00 99 1015.5
20210418114520 33 7 9.0 18.0 0.00 0.00 0.00 99 1015.5
20210418114021 33 24 7.0 18.0 0.00 0.00 0.00 99 1015.4
20210418113524 33 4 8.0 14.0 0.00 0.00 0.00 99 1015.3
20210418113057 33 7 7.0 10.0 0.00 0.00 0.00 99 1015.3
20210418112936 33 17 8.0 13.0 0.00 0.00 0.00 99 1015.3
20210418112317 33 1 10.0 13.0 0.00 0.00 0.00 99 1015.3
20210418111516 34 8 6.0 10.0 0.00 0.00 0.00 99 1015.1
20210418111020 34 359 3.0 8.0 0.00 0.00 0.00 99 1015.0
20210418110518 34 21 8.0 8.0 0.00 0.00 0.00 99 1014.9
20210418110116 35 45 8.0 13.0 0.00 0.00 0.00 99 1014.9
20210418105844 35 7 13.0 13.0 0.00 0.00 0.00 99 1014.9
20210418105234 35 18 12.0 13.0 0.00 0.00 0.00 99 1014.9
20210418104511 35 32 10.0 13.0 0.00 0.00 0.00 99 1014.9
20210418104021 35 49 9.0 16.0 0.00 0.00 0.00 99 1014.8
20210418103517 35 28 10.0 16.0 0.00 0.00 0.00 99 1014.7
20210418103027 35 59 5.0 12.0 0.00 0.00 0.00 99 1014.7
20210418102840 36 23 8.0 12.0 0.00 0.00 0.00 99 1014.6
20210418102234 36 44 10.0 13.0 0.00 0.00 0.00 99 1014.7
20210418101528 36 359 11.0 13.0 0.00 0.00 0.00 99 1014.6
20210418101019 36 41 9.0 12.0 0.00 0.00 0.00 99 1014.6
20210418100512 36 14 11.0 16.0 0.00 0.00 0.00 99 1014.4
20210418100033 36 353 16.0 16.0 0.00 0.00 0.00 99 1014.3
20210418095910 37 39 15.0 15.0 0.00 0.00 0.00 99 1014.2
20210418095343 37 23 11.0 33.0 0.00 0.00 0.00 99 1014.1
20210418094511 37 18 16.0 33.0 0.00 0.00 0.00 99 1014.1
20210418094024 37 18 10.0 23.0 0.00 0.00 0.00 99 1014.0
20210418093511 38 333 23.0 23.0 0.00 0.00 0.00 99 1014.0
20210418093025 38 38 9.0 14.0 0.00 0.00 0.00 99 1014.0
20210418092728 38 354 8.0 15.0 0.00 0.00 0.00 99 1013.9
20210418092119 39 11 11.0 18.0 0.00 0.00 0.00 99 1014.0
20210418091516 40 0 12.0 18.0 0.00 0.00 0.00 99 1013.8
20210418091019 41 48 15.0 15.0 0.00 0.00 0.00 99 1013.8
20210418090518 42 7 10.0 15.0 0.00 0.00 0.00 99 1013.7
20210418090046 42 343 13.0 17.0 0.00 0.00 0.00 99 1013.6
20210418085833 43 353 16.0 17.0 0.00 0.00 0.00 99 1013.5
20210418085128 43 4 10.0 16.0 0.00 0.00 0.00 99 1013.5
20210418084517 43 340 9.0 12.0 0.00 0.00 0.00 99 1013.4
20210418084018 42 350 8.0 12.0 0.00 0.00 0.00 99 1013.4
20210418083509 42 342 7.0 8.0 0.00 0.00 0.00 99 1013.3
20210418083025 42 340 4.0 8.0 0.00 0.00 0.00 99 1013.3
20210418082741 42 332 5.0 5.0 0.00 0.00 0.00 99 1013.0
20210418082037 42 335 3.0 4.0 0.00 0.00 0.00 99 1013.0
20210418081514 41 307 2.0 4.0 0.00 0.00 0.00 99 1013.1
20210418081019 41 271 0.0 0.0 0.00 0.00 0.00 99 1013.0
20210418080517 42 271 0.0 0.0 0.00 0.00 0.00 99 1013.1
20210418080147 42 271 0.0 0.0 0.00 0.00 0.00 99 1013.1
20210418080034 42 271 0.0 0.0 0.00 0.00 0.00 99 1013.3
20210418075232 42 271 0.0 0.0 0.00 0.00 0.00 99 1013.3
20210418074514 42 271 0.0 0.0 0.00 0.00 0.00 99 1013.4
20210418073949 42 271 0.0 0.0 0.00 0.00 0.00 99 1013.3
20210418073450 42 271 0.0 0.0 0.00 0.00 0.00 99 1013.3
20210418072948 42 271 0.0 0.0 0.00 0.00 0.00 99 1013.4
20210418072648 42 271 0.0 0.0 0.00 0.00 0.00 99 1013.5
20210418072107 42 271 0.0 0.0 0.00 0.00 0.00 99 1013.6
20210418071523 43 271 0.0 0.0 0.00 0.00 0.00 99 1013.7
20210418071034 43 271 0.0 0.0 0.00 0.00 0.00 99 1013.6
20210418070511 43 271 0.0 0.0 0.00 0.00 0.00 99 1013.6
20210418070034 43 271 0.0 0.0 0.00 0.00 0.00 99 1013.6
20210418065750 43 271 0.0 0.0 0.00 0.00 0.00 99 1013.5
20210418065156 43 271 0.0 0.0 0.00 0.00 0.00 99 1013.5
20210418064512 43 271 0.0 0.0 0.00 0.00 0.00 99 1013.5
20210418064020 44 271 0.0 0.0 0.00 0.00 0.00 99 1013.6
20210418063448 44 271 0.0 0.0 0.00 0.00 0.00 99 1013.6
20210418062950 44 271 0.0 0.0 0.00 0.00 0.00 99 1013.7
20210418062740 44 271 0.0 0.0 0.00 0.00 0.00 99 1013.7
20210418062055 44 271 0.0 0.0 0.00 0.00 0.00 99 1013.7
20210418061519 44 271 0.0 0.0 0.00 0.00 0.00 99 1013.7
20210418061020 44 271 0.0 0.0 0.00 0.00 0.00 99 1013.7
20210418060511 44 271 0.0 0.0 0.00 0.00 0.00 99 1013.7
20210418060159 44 271 0.0 0.0 0.00 0.00 0.00 99 1013.6
20210418055911 44 271 0.0 0.0 0.00 0.00 0.00 99 1013.7
20210418055241 44 271 0.0 0.0 0.00 0.00 0.00 99 1013.9
20210418054521 45 271 0.0 0.0 0.00 0.00 0.00 99 1014.0
20210418053950 45 271 0.0 0.0 0.00 0.00 0.00 99 1014.1
20210418053515 45 271 0.0 0.0 0.00 0.00 0.00 99 1014.2
20210418053049 45 271 0.0 0.0 0.00 0.00 0.00 99 1014.3
20210418052832 45 271 0.0 0.0 0.00 0.00 0.00 99 1014.3
20210418052238 45 271 0.0 0.0 0.00 0.00 0.00 99 1014.3
20210418051514 45 271 0.0 0.0 0.00 0.00 0.00 99 1014.4
20210418051020 45 271 0.0 5.0 0.00 0.00 0.00 99 1014.4
20210418050521 46 311 5.0 5.0 0.00 0.00 0.00 99 1014.4
20210418045817 46 262 4.0 4.0 0.00 0.00 0.00 99 1014.4
20210418045114 46 271 2.0 4.0 0.00 0.00 0.00 99 1014.5
20210418044512 46 288 0.0 0.0 0.00 0.00 0.00 99 1014.5
20210418044020 46 288 0.0 4.0 0.00 0.00 0.00 99 1014.6
20210418043520 46 302 4.0 5.0 0.00 0.00 0.00 99 1014.6
20210418043025 46 280 5.0 5.0 0.00 0.00 0.00 99 1014.6
20210418042839 46 285 0.0 4.0 0.00 0.00 0.00 99 1014.7
20210418042218 46 281 0.0 0.0 0.00 0.00 0.00 99 1014.7
20210418041512 46 281 0.0 0.0 0.00 0.00 0.00 99 1014.8
20210418041022 46 281 0.0 0.0 0.00 0.00 0.00 99 1014.8
20210418040511 46 281 0.0 0.0 0.00 0.00 0.00 99 1014.9
20210418040012 45 281 0.0 0.0 0.00 0.00 0.00 99 1014.9
20210418035751 45 281 0.0 0.0 0.00 0.00 0.00 99 1014.9
20210418035144 45 281 0.0 0.0 0.00 0.00 0.00 99 1015.0
20210418034519 46 281 0.0 0.0 0.00 0.00 0.00 99 1015.1
20210418034021 46 281 0.0 0.0 0.00 0.00 0.00 99 1015.1
20210418033522 46 281 0.0 0.0 0.00 0.00 0.00 99 1015.1
20210418033044 46 281 0.0 0.0 0.00 0.00 0.00 99 1015.2
20210418032911 46 281 0.0 0.0 0.00 0.00 0.00 99 1015.2
20210418032354 46 281 0.0 0.0 0.00 0.00 0.00 99 1015.3
20210418031511 46 281 0.0 0.0 0.00 0.00 0.00 99 1015.3
20210418031023 47 281 0.0 0.0 0.00 0.00 0.00 99 1015.3
20210418030509 47 281 0.0 0.0 0.00 0.00 0.00 99 1015.3
20210418030223 47 281 0.0 0.0 0.00 0.00 0.00 99 1015.3
20210418025918 48 281 0.0 0.0 0.00 0.00 0.00 99 1015.3
20210418025334 48 281 0.0 0.0 0.00 0.00 0.00 99 1015.4
20210418024453 48 281 0.0 0.0 0.00 0.00 0.00 99 1015.4
20210418023948 49 281 0.0 0.0 0.00 0.00 0.00 99 1015.5
20210418023450 49 281 0.0 0.0 0.00 0.00 0.00 99 1015.4
20210418022949 49 281 0.0 0.0 0.00 0.00 0.00 99 1015.5
20210418022748 49 281 0.0 0.0 0.00 0.00 0.00 99 1015.5
20210418022036 49 281 0.0 0.0 0.00 0.00 0.00 99 1015.6
20210418021519 49 281 0.0 0.0 0.00 0.00 0.00 99 1015.6
20210418021011 49 281 0.0 0.0 0.00 0.00 0.00 99 1015.6
20210418020515 50 281 0.0 0.0 0.00 0.00 0.00 99 1015.7
20210418020024 50 281 0.0 0.0 0.00 0.00 0.00 98 1015.6
20210418015840 51 281 0.0 0.0 0.00 0.00 0.00 96 1015.7
20210418015228 51 281 0.0 0.0 0.00 0.00 0.00 95 1015.8
20210418014538 51 281 0.0 0.0 0.00 0.00 0.00 92 1015.8
20210418014020 52 281 0.0 0.0 0.00 0.00 0.00 90 1015.7
20210418013515 52 281 0.0 0.0 0.00 0.00 0.00 89 1015.7
20210418013210 52 281 0.0 0.0 0.00 0.00 0.00 88 1015.7
20210418012959 53 281 0.0 0.0 0.00 0.00 0.00 87 1015.9
20210418012241 53 281 0.0 3.0 0.00 0.00 0.00 86 1015.8
20210418011513 54 281 0.0 5.0 0.00 0.00 0.00 85 1015.8
20210418011029 54 328 2.0 5.0 0.00 0.00 0.00 84 1015.8
20210418010527 55 342 0.0 0.0 0.00 0.00 0.00 83 1015.9
20210418010025 55 336 0.0 0.0 0.00 0.00 0.00 82 1015.9
20210418005817 55 336 0.0 0.0 0.00 0.00 0.00 81 1015.9
20210418005218 55 336 0.0 0.0 0.00 0.00 0.00 80 1015.9
20210418004515 55 336 0.0 6.0 0.00 0.00 0.00 80 1015.9
20210418004026 55 329 6.0 7.0 0.00 0.00 0.00 77 1016.0
20210418003516 56 328 7.0 7.0 0.00 0.00 0.00 78 1016.1
20210418003022 56 319 7.0 7.0 0.00 0.00 0.00 76 1016.1
20210418002759 56 290 2.0 3.0 0.00 0.00 0.00 71 1016.2
20210418002142 56 335 0.0 0.0 0.00 0.00 0.00 71 1016.2
20210418001518 56 312 0.0 0.0 0.00 0.00 0.00 69 1016.2
20210418001025 56 312 0.0 0.0 0.00 0.00 0.00 68 1016.3
20210418000528 57 312 0.0 5.0 0.00 0.00 0.00 68 1016.4
20210418000038 57 312 3.0 6.0 0.00 0.00 0.00 69 1016.4
20210417235824 57 359 3.0 6.0 0.00 0.00 0.00 70 1016.4
20210417235248 57 6 4.0 5.0 0.00 0.00 0.00 69 1016.4
20210417234515 57 307 0.0 5.0 0.00 0.00 0.00 67 1016.5
20210417234028 57 294 0.0 5.0 0.00 0.00 0.00 66 1016.5
20210417233523 57 308 0.0 4.0 0.00 0.00 0.00 69 1016.5
20210417233022 57 20 0.0 6.0 0.00 0.00 0.00 69 1016.6
20210417232753 57 8 6.0 6.0 0.00 0.00 0.00 69 1016.6
20210417232119 57 339 0.0 3.0 0.00 0.00 0.00 69 1016.6
20210417231512 57 18 3.0 6.0 0.00 0.00 0.00 70 1016.7
20210417231027 57 354 5.0 6.0 0.00 0.00 0.00 69 1016.7
20210417230511 57 353 0.0 0.0 0.00 0.00 0.00 70 1016.7
20210417230106 57 31 0.0 4.0 0.00 0.00 0.00 70 1016.7
20210417225845 57 55 3.0 4.0 0.00 0.00 0.00 69 1016.8
20210417225110 57 46 0.0 0.0 0.00 0.00 0.00 71 1016.8
20210417224513 57 46 0.0 5.0 0.00 0.00 0.00 71 1016.8
20210417224032 57 62 3.0 5.0 0.00 0.00 0.00 70 1016.8
20210417223535 57 238 0.0 0.0 0.00 0.00 0.00 70 1016.9
20210417223031 57 238 0.0 0.0 0.00 0.00 0.00 69 1016.9
20210417222913 57 238 0.0 0.0 0.00 0.00 0.00 70 1016.9
20210417222306 57 335 0.0 5.0 0.00 0.00 0.00 70 1017.0
20210417221513 57 312 3.0 5.0 0.00 0.00 0.00 69 1017.0
20210417221020 57 338 0.0 0.0 0.00 0.00 0.00 71 1017.2
20210417220512 57 319 0.0 3.0 0.00 0.00 0.00 71 1017.2
20210417220022 56 319 0.0 3.0 0.00 0.00 0.00 71 1017.3
20210417215643 56 335 0.0 0.0 0.00 0.00 0.00 74 1017.3
20210417215024 56 335 0.0 6.0 0.00 0.00 0.00 73 1017.5
20210417214518 56 17 5.0 6.0 0.00 0.00 0.00 73 1017.5
20210417214022 56 30 0.0 4.0 0.00 0.00 0.00 72 1017.6
20210417213515 56 48 4.0 6.0 0.00 0.00 0.00 74 1017.6
20210417213031 56 0 5.0 7.0 0.00 0.00 0.00 73 1017.7
20210417212658 56 333 5.0 7.0 0.00 0.00 0.00 73 1017.8
20210417212034 56 17 0.0 0.0 0.00 0.00 0.00 74 1017.8
20210417211515 56 329 0.0 0.0 0.00 0.00 0.00 75 1017.8
20210417211021 55 329 0.0 0.0 0.00 0.00 0.00 75 1017.9
20210417210516 55 249 0.0 0.0 0.00 0.00 0.00 74 1018.0
20210417205948 55 345 0.0 7.0 0.00 0.00 0.00 75 1018.1
20210417205836 56 340 7.0 7.0 0.00 0.00 0.00 74 1018.1
20210417205158 55 138 0.0 6.0 0.00 0.00 0.00 77 1018.2
20210417204508 55 138 0.0 6.0 0.00 0.00 0.00 74 1018.3
20210417204031 55 305 4.0 5.0 0.00 0.00 0.00 77 1018.4
20210417203504 54 304 0.0 0.0 0.00 0.00 0.00 77 1018.4
20210417203020 54 304 0.0 0.0 0.00 0.00 0.00 76 1018.5
20210417202819 54 315 0.0 5.0 0.00 0.00 0.00 77 1018.4
20210417202101 54 39 3.0 5.0 0.00 0.00 0.00 77 1018.5
20210417201509 54 124 0.0 5.0 0.00 0.00 0.00 78 1018.5
20210417201018 54 139 5.0 5.0 0.00 0.00 0.00 77 1018.7
20210417200510 54 56 4.0 5.0 0.00 0.00 0.00 78 1018.7
20210417200021 54 103 5.0 5.0 0.00 0.00 0.00 81 1018.7
20210417195738 54 30 0.0 8.0 0.00 0.00 0.00 78 1018.8
20210417195151 54 1 5.0 8.0 0.00 0.00 0.00 76 1018.9
20210417194512 54 25 0.0 5.0 0.00 0.00 0.00 77 1019.0
20210417194023 54 349 3.0 5.0 0.00 0.00 0.00 80 1019.1
20210417193516 53 11 0.0 11.0 0.00 0.00 0.00 78 1019.0
20210417193020 53 13 7.0 11.0 0.00 0.00 0.00 76 1019.1
20210417192816 53 359 2.0 6.0 0.00 0.00 0.00 79 1019.1
20210417192225 53 30 0.0 10.0 0.00 0.00 0.00 79 1019.2
20210417191534 53 30 6.0 10.0 0.00 0.00 0.00 78 1019.2
20210417191033 53 11 6.0 8.0 0.00 0.00 0.00 77 1019.2
20210417190546 53 10 6.0 6.0 0.00 0.00 0.00 76 1019.2
20210417190026 53 359 0.0 7.0 0.00 0.00 0.00 75 1019.2
20210417185738 53 23 3.0 7.0 0.00 0.00 0.00 77 1019.2
20210417185107 53 41 5.0 7.0 0.00 0.00 0.00 78 1019.2
20210417184512 53 0 3.0 7.0 0.00 0.00 0.00 78 1019.3
20210417184020 52 52 0.0 7.0 0.00 0.00 0.00 81 1019.3
20210417183508 53 1 7.0 7.0 0.00 0.00 0.00 82 1019.3
20210417183023 53 63 4.0 7.0 0.00 0.00 0.00 81 1019.3
20210417182856 52 18 0.0 0.0 0.00 0.00 0.00 84 1019.4
20210417182427 52 48 0.0 8.0 0.00 0.00 0.00 86 1019.4
20210417181536 51 1 7.0 11.0 0.00 0.00 0.00 87 1019.5
20210417181034 51 359 7.0 11.0 0.00 0.00 0.00 83 1019.6
20210417180543 52 339 7.0 9.0 0.00 0.00 0.00 80 1019.6
20210417180034 51 359 5.0 9.0 0.00 0.00 0.00 84 1019.6
20210417175746 51 4 5.0 9.0 0.00 0.00 0.00 83 1019.7
20210417175132 51 8 7.0 9.0 0.00 0.00 0.00 88 1019.7
20210417174513 51 7 8.0 9.0 0.00 0.00 0.00 83 1019.8
20210417174018 51 13 5.0 8.0 0.00 0.00 0.00 86 1019.8
20210417173509 51 58 5.0 7.0 0.00 0.00 0.00 84 1019.8
20210417173025 51 8 4.0 8.0 0.00 0.00 0.00 88 1019.8
20210417172833 51 18 4.0 10.0 0.00 0.00 0.00 87 1019.9
20210417172053 51 328 10.0 10.0 0.00 0.00 0.00 91 1019.9